Weather History for Worland, WY

Change the Weather History Date:

Saturday, September 7, 2013

  Actual Average Record
Temperature  
Mean Temperature 75 °F 63 °F  
Max Temperature 91 °F 79 °F 99 °F (1998)
Min Temperature 59 °F 46 °F 34 °F (2010)
Degree Days  
Heating Degree Days 0 4  
Month to date heating degree days 0 22  
Since 1 July heating degree days 0 58  
Cooling Degree Days 10 2  
Month to date cooling degree days 73 16  
Year to date cooling degree days 834 522  
Growing Degree Days 26 (Base 50)    
Moisture  
Dew Point 53 °F    
Average Humidity 57    
Maximum Humidity 90    
Minimum Humidity 23    
Precipitation  
Precipitation 0.09 in 0.02 in 0.20 in (1991)
Month to date precipitation 0.12 0.15  
Year to date precipitation 3.33 5.60  
Sea Level Pressure  
Sea Level Pressure 29.98 in    
Wind  
Wind Speed 7 mph (NW)    
Max Wind Speed 43 mph    
Max Gust Speed 54 mph    
Visibility 10 miles    
Events Rain , Thunderstorm    
T = Trace of Precipitation, MM = Missing Value Source: NWS Daily Summary

Daily Weather History Graph

Daily Weather History Graph

Search for Another Location

Airport:

Trip Planner

Search our weather history database for the weather conditions in past years. The results will help you decide how hot, cold, wet, or windy it might be!

Date:

Astronomy

Sep. 07, 2013 Rise Set
Actual Time 6:42 AM MDT 7:36 PM MDT
Civil Twilight 6:12 AM MDT 8:05 PM MDT
Nautical Twilight 5:37 AM MDT 8:40 PM MDT
Astronomical Twilight 5:01 AM MDT 9:16 PM MDT
Moon 9:06 AM MDT (9/7) 8:28 PM MDT (9/7)
Length of Visible Light 13h 52m
Length of Day
12h 54m
Waxing Crescent, 5% of the Moon is Illuminated
Sep 7
Waxing Crescent
Sep 12
First Quarter
Sep 19
Full
Sep 26
Last Quarter
Oct 4
New

Hourly Weather History & Observations

Time (MDT) Temp. Heat Index Dew Point Humidity Pressure Visibility Wind Dir Wind Speed Gust Speed Precip Events Conditions
12:53 AM 69.1 °F - 51.1 °F 53% 29.98 in 10.0 mi SSE 3.5 mph - N/A   Mostly Cloudy
1:53 AM 69.1 °F - 53.1 °F 57% 29.95 in 10.0 mi NNE 6.9 mph - N/A   Scattered Clouds
2:06 AM 66.2 °F - 55.4 °F 68% 30.09 in 10.0 mi ENE 9.2 mph - N/A Thunderstorm Thunderstorm
2:24 AM 66.2 °F - 55.4 °F 68% 30.13 in 10.0 mi South 5.8 mph - N/A   Scattered Clouds
2:53 AM 66.9 °F - 54.0 °F 63% 30.00 in 10.0 mi SE 6.9 mph - N/A   Mostly Cloudy
3:53 AM 64.0 °F - 53.1 °F 67% 29.98 in 10.0 mi SSE 3.5 mph - N/A   Partly Cloudy
4:19 AM 66.2 °F - 53.6 °F 64% 30.11 in 10.0 mi Calm Calm - N/A Thunderstorm Mostly Cloudy
4:37 AM 66.2 °F - 51.8 °F 60% 30.11 in 10.0 mi SE 8.1 mph - N/A Thunderstorm Scattered Clouds
4:53 AM 66.0 °F - 52.0 °F 60% 29.98 in 10.0 mi West 9.2 mph - N/A   Mostly Cloudy
5:53 AM 61.0 °F - 57.0 °F 87% 29.99 in 10.0 mi SW 5.8 mph - 0.00 in   Clear
6:53 AM 61.0 °F - 57.0 °F 87% 29.99 in 10.0 mi Calm Calm - N/A   Clear
7:53 AM 64.9 °F - 54.0 °F 68% 30.01 in 10.0 mi Calm Calm - N/A   Clear
8:53 AM 69.1 °F - 55.9 °F 63% 30.00 in 10.0 mi Calm Calm - N/A   Clear
9:53 AM 73.0 °F - 54.0 °F 51% 29.99 in 10.0 mi NE 4.6 mph - N/A   Clear
10:53 AM 78.1 °F - 53.1 °F 42% 29.99 in 10.0 mi Variable 3.5 mph - N/A   Clear
11:53 AM 82.9 °F 81.9 °F 54.0 °F 37% 29.96 in 10.0 mi North 5.8 mph - N/A   Clear
12:53 PM 84.9 °F - 51.1 °F 31% 29.94 in 10.0 mi North 4.6 mph - N/A   Clear
1:53 PM 89.1 °F - 48.9 °F 25% 29.91 in 10.0 mi Variable 4.6 mph - N/A   Clear
2:53 PM 90.0 °F - 46.0 °F 22% 29.88 in 10.0 mi North 5.8 mph - N/A   Clear
3:53 PM 90.0 °F - 46.9 °F 23% 29.87 in 10.0 mi North 5.8 mph - N/A   Clear
4:53 PM 91.0 °F - 48.0 °F 23% 29.84 in 10.0 mi North 9.2 mph - N/A   Clear
5:53 PM 88.0 °F - 46.9 °F 24% 29.84 in 10.0 mi North 9.2 mph - N/A   Clear
6:53 PM 84.9 °F - 46.9 °F 27% 29.83 in 10.0 mi North 8.1 mph - N/A   Clear
7:53 PM 79.0 °F - 48.0 °F 34% 29.84 in 10.0 mi North 3.5 mph - N/A   Clear
8:41 PM 78.8 °F - 48.2 °F 34% 30.03 in 10.0 mi SSW 28.8 mph 40.3 mph N/A Thunderstorm Squalls
8:53 PM 73.0 °F - 55.0 °F 53% 29.93 in 6.0 mi SW 24.2 mph 51.8 mph 0.00 in Rain , Thunderstorm Light Thunderstorms and Rain
9:00 PM 68.0 °F - 57.2 °F 68% 30.08 in 7.0 mi SSW 32.2 mph 54.1 mph 0.00 in Rain , Thunderstorm Light Thunderstorms and Rain
9:39 PM 66.2 °F - 59.0 °F 78% 30.08 in 8.0 mi West 16.1 mph - 0.06 in Rain , Thunderstorm Rain
9:53 PM 66.0 °F - 57.9 °F 75% 29.98 in 9.0 mi WSW 25.3 mph 32.2 mph 0.08 in Rain , Thunderstorm Light Rain
10:00 PM 66.2 °F - 57.2 °F 73% 30.10 in 10.0 mi WSW 20.7 mph 32.2 mph 0.00 in Rain Light Rain
10:17 PM 66.2 °F - 57.2 °F 73% 30.04 in 9.0 mi NNW 11.5 mph - 0.01 in Rain Light Rain
10:53 PM 68.0 °F - 55.9 °F 65% 29.90 in 10.0 mi East 12.7 mph - 0.01 in   Scattered Clouds
11:53 PM 66.9 °F - 57.9 °F 73% 29.95 in 10.0 mi South 5.8 mph - N/A   Clear